UAL850 KLAX-KDEN

Flight info

Callsign UAL850
Flight time N/A
Altitude 39000
Route ORCKA5 LAS J146 DICEE BUMMP SSKII4
Aircraft B77W/H-SDE1E2E3FGHIJ2J3J4J5M1RWXY/LB1D1

Departure

Time 2026-05-05 18:08
Airport Los Angeles International Airport (KLAX)

Arrival

Time N/A
Airport Denver International Airport (KDEN)
Time Latitude Longitude Altitude Speed Heading
2026-05-05 17:51 33.94024 -118.40923 133 ft 0 kts 263°
2026-05-05 17:59 33.94026 -118.40903 132 ft 2 kts 264°
2026-05-05 17:59 33.94028 -118.40882 132 ft 1 kts 263°
2026-05-05 17:59 33.94031 -118.40864 132 ft 2 kts 248°
2026-05-05 18:00 33.94041 -118.40846 132 ft 2 kts 220°
2026-05-05 18:00 33.94056 -118.40836 132 ft 2 kts 198°
2026-05-05 18:00 33.94072 -118.40833 132 ft 1 kts 175°
2026-05-05 18:00 33.94077 -118.40833 131 ft 0 kts 173°
2026-05-05 18:02 33.94048 -118.40829 132 ft 8 kts 173°
2026-05-05 18:02 33.93980 -118.40818 133 ft 11 kts 171°
2026-05-05 18:03 33.93895 -118.40784 133 ft 13 kts 152°
2026-05-05 18:03 33.93827 -118.40701 133 ft 15 kts 110°
2026-05-05 18:03 33.93823 -118.40560 131 ft 19 kts 85°
2026-05-05 18:03 33.93838 -118.40393 128 ft 20 kts 82°
2026-05-05 18:04 33.93858 -118.40216 126 ft 20 kts 83°
2026-05-05 18:04 33.93876 -118.40039 124 ft 20 kts 83°
2026-05-05 18:04 33.93894 -118.39857 120 ft 21 kts 83°
2026-05-05 18:04 33.93914 -118.39671 117 ft 22 kts 83°
2026-05-05 18:05 33.93933 -118.39487 116 ft 21 kts 83°
2026-05-05 18:05 33.93951 -118.39301 113 ft 22 kts 83°
2026-05-05 18:05 33.93970 -118.39120 113 ft 21 kts 83°
2026-05-05 18:05 33.93988 -118.38932 110 ft 22 kts 83°
2026-05-05 18:06 33.94007 -118.38754 110 ft 21 kts 83°
2026-05-05 18:06 33.94018 -118.38641 110 ft 20 kts 83°
2026-05-05 18:06 33.94041 -118.38419 109 ft 20 kts 83°
2026-05-05 18:06 33.94059 -118.38248 107 ft 20 kts 83°
2026-05-05 18:07 33.94073 -118.38112 107 ft 11 kts 83°
2026-05-05 18:07 33.94069 -118.38033 107 ft 8 kts 125°
2026-05-05 18:07 33.94018 -118.38014 107 ft 7 kts 197°
2026-05-05 18:07 33.93982 -118.38074 107 ft 8 kts 256°
2026-05-05 18:08 33.93932 -118.38542 111 ft 109 kts 264°
2026-05-05 18:08 33.93781 -118.40041 475 ft 194 kts 262°
2026-05-05 18:08 33.93602 -118.41657 1796 ft 201 kts 263°
2026-05-05 18:08 33.93432 -118.43339 2667 ft 215 kts 263°
2026-05-05 18:09 33.93238 -118.45272 2957 ft 246 kts 263°
2026-05-05 18:09 33.92955 -118.47366 3162 ft 272 kts 253°
2026-05-05 18:09 33.92303 -118.49483 4369 ft 273 kts 249°
2026-05-05 18:09 33.91579 -118.51587 4866 ft 271 kts 248°
2026-05-05 18:10 33.90811 -118.53635 4941 ft 274 kts 239°
2026-05-05 18:10 33.89362 -118.55265 5669 ft 296 kts 207°
2026-05-05 18:10 33.87447 -118.55787 7173 ft 287 kts 179°
2026-05-05 18:10 33.85540 -118.55250 8430 ft 286 kts 153°
2026-05-05 18:11 33.83986 -118.53730 9417 ft 293 kts 125°
2026-05-05 18:11 33.83194 -118.51525 10420 ft 297 kts 98°
2026-05-05 18:11 33.83373 -118.48802 11146 ft 313 kts 68°
2026-05-05 18:11 33.84886 -118.46365 11885 ft 329 kts 36°
2026-05-05 18:12 33.87008 -118.44482 12693 ft 349 kts 43°
2026-05-05 18:12 33.88664 -118.42171 13449 ft 367 kts 50°
2026-05-05 18:12 33.90371 -118.39529 14300 ft 383 kts 51°
2026-05-05 18:12 33.92155 -118.36749 15354 ft 393 kts 51°
2026-05-05 18:13 33.93970 -118.33916 16545 ft 399 kts 51°
2026-05-05 18:13 33.95779 -118.31092 17723 ft 404 kts 51°
2026-05-05 18:13 33.97721 -118.28056 18918 ft 410 kts 51°
2026-05-05 18:13 33.99741 -118.24895 20101 ft 417 kts 51°
2026-05-05 18:14 34.01736 -118.21773 21300 ft 422 kts 51°
2026-05-05 18:14 34.03627 -118.18810 22344 ft 427 kts 51°
2026-05-05 18:14 34.05447 -118.15954 23203 ft 435 kts 51°
2026-05-05 18:14 34.07290 -118.13062 24081 ft 440 kts 51°
2026-05-05 18:15 34.09163 -118.10120 24920 ft 445 kts 51°
2026-05-05 18:15 34.11288 -118.06777 25833 ft 450 kts 51°
2026-05-05 18:15 34.13419 -118.03424 26681 ft 456 kts 51°
2026-05-05 18:15 34.15351 -118.00381 27410 ft 461 kts 51°
2026-05-05 18:16 34.17303 -117.97304 28163 ft 466 kts 51°
2026-05-05 18:16 34.19294 -117.94160 28845 ft 470 kts 51°
2026-05-05 18:16 34.21280 -117.91024 29481 ft 474 kts 51°
2026-05-05 18:16 34.23303 -117.87825 30205 ft 475 kts 51°
2026-05-05 18:17 34.25305 -117.84656 30877 ft 475 kts 51°
2026-05-05 18:17 34.27310 -117.81480 31404 ft 477 kts 51°
2026-05-05 18:17 34.29329 -117.78280 31739 ft 486 kts 51°
2026-05-05 18:17 34.31404 -117.74989 32172 ft 490 kts 51°
2026-05-05 18:18 34.33452 -117.71733 32678 ft 491 kts 51°
2026-05-05 18:18 34.35511 -117.68453 33191 ft 492 kts 51°
2026-05-05 18:18 34.37522 -117.65118 33806 ft 494 kts 52°
2026-05-05 18:18 34.39522 -117.61756 34396 ft 495 kts 52°
2026-05-05 18:19 34.41540 -117.58362 34991 ft 495 kts 52°
2026-05-05 18:19 34.43547 -117.54988 35582 ft 495 kts 52°
2026-05-05 18:19 34.45546 -117.51625 36111 ft 495 kts 52°
2026-05-05 18:19 34.47559 -117.48238 36571 ft 497 kts 52°
2026-05-05 18:20 34.49579 -117.44839 36996 ft 498 kts 52°
2026-05-05 18:20 34.51609 -117.41419 37403 ft 499 kts 52°
2026-05-05 18:20 34.53637 -117.38001 37764 ft 501 kts 52°
2026-05-05 18:20 34.55662 -117.34585 38137 ft 503 kts 53°
2026-05-05 18:21 34.57704 -117.31137 38528 ft 504 kts 53°
2026-05-05 18:21 34.59740 -117.27695 38944 ft 504 kts 53°
2026-05-05 18:21 34.61796 -117.24218 39001 ft 506 kts 53°
2026-05-05 18:22 34.65862 -117.17331 38986 ft 503 kts 53°
2026-05-05 18:22 34.69952 -117.10388 38980 ft 503 kts 53°
2026-05-05 18:23 34.74020 -117.03472 38973 ft 503 kts 53°
2026-05-05 18:23 34.78084 -116.96549 38976 ft 512 kts 53°
2026-05-05 18:24 34.82255 -116.89430 38983 ft 518 kts 53°
2026-05-05 18:24 34.86405 -116.82332 38989 ft 517 kts 53°
2026-05-05 18:25 34.90570 -116.75194 38984 ft 516 kts 53°
2026-05-05 18:25 34.95168 -116.68540 38970 ft 516 kts 46°
2026-05-05 18:26 35.00034 -116.62155 38961 ft 516 kts 46°
2026-05-05 18:26 35.04877 -116.55784 38953 ft 513 kts 46°
2026-05-05 18:27 35.09752 -116.49354 38940 ft 515 kts 46°
2026-05-05 18:27 35.14599 -116.42943 38942 ft 515 kts 46°
2026-05-05 18:28 35.21867 -116.33304 38939 ft 514 kts 46°
2026-05-05 18:28 35.26688 -116.26894 38934 ft 513 kts 46°
2026-05-05 18:29 35.31529 -116.20446 38932 ft 514 kts 46°
2026-05-05 18:29 35.36340 -116.14024 38931 ft 515 kts 46°
2026-05-05 18:30 35.41172 -116.07562 38934 ft 513 kts 47°
2026-05-05 18:30 35.45955 -116.01154 38931 ft 513 kts 46°
2026-05-05 18:31 35.50776 -115.94682 38931 ft 513 kts 46°
2026-05-05 18:31 35.55571 -115.88232 38938 ft 513 kts 47°
2026-05-05 18:32 35.60385 -115.81747 38934 ft 513 kts 47°
2026-05-05 18:32 35.65164 -115.75275 38939 ft 514 kts 47°
2026-05-05 18:33 35.69897 -115.68763 38938 ft 512 kts 47°
2026-05-05 18:33 35.74656 -115.62206 38943 ft 512 kts 47°
2026-05-05 18:34 35.79392 -115.55670 38943 ft 512 kts 47°
2026-05-05 18:34 35.84103 -115.49158 38947 ft 512 kts 47°
2026-05-05 18:35 35.88863 -115.42567 38952 ft 512 kts 47°
2026-05-05 18:35 35.93586 -115.36014 38983 ft 512 kts 47°
2026-05-05 18:36 35.98288 -115.29479 38956 ft 513 kts 48°
2026-05-05 18:36 36.03037 -115.22865 38944 ft 512 kts 48°
2026-05-05 18:37 36.07522 -115.15852 38934 ft 515 kts 59°
2026-05-05 18:37 36.10492 -115.07777 38926 ft 511 kts 69°
2026-05-05 18:38 36.13030 -114.99577 38921 ft 513 kts 70°
2026-05-05 18:38 36.15561 -114.91358 38916 ft 512 kts 70°
2026-05-05 18:39 36.18063 -114.83204 38918 ft 510 kts 70°
2026-05-05 18:39 36.20587 -114.74969 38918 ft 513 kts 70°
2026-05-05 18:40 36.23110 -114.66724 38916 ft 512 kts 70°
2026-05-05 18:40 36.25618 -114.58499 38914 ft 513 kts 70°
2026-05-05 18:41 36.28144 -114.50195 38914 ft 514 kts 70°
2026-05-05 18:41 36.30637 -114.41972 38914 ft 513 kts 70°
2026-05-05 18:42 36.33042 -114.34017 38924 ft 515 kts 70°
2026-05-05 18:42 36.35513 -114.25822 38927 ft 513 kts 70°
2026-05-05 18:43 36.38004 -114.17532 38926 ft 515 kts 70°
2026-05-05 18:43 36.40496 -114.09217 38924 ft 516 kts 70°
2026-05-05 18:44 36.42965 -114.00956 38933 ft 516 kts 70°
2026-05-05 18:44 36.45460 -113.92581 38941 ft 516 kts 70°
2026-05-05 18:45 36.47924 -113.84284 38950 ft 518 kts 71°
2026-05-05 18:45 36.50415 -113.75874 38954 ft 518 kts 70°
2026-05-05 18:46 36.52890 -113.67491 38960 ft 519 kts 70°
2026-05-05 18:46 36.55375 -113.59049 38964 ft 520 kts 71°
2026-05-05 18:47 36.57849 -113.50620 38962 ft 521 kts 70°
2026-05-05 18:47 36.60328 -113.42146 38965 ft 521 kts 70°
2026-05-05 18:48 36.62799 -113.33676 38975 ft 522 kts 71°
2026-05-05 18:48 36.65252 -113.25229 38966 ft 521 kts 71°
2026-05-05 18:49 36.67706 -113.16749 38971 ft 523 kts 71°
2026-05-05 18:49 36.70169 -113.08214 38974 ft 522 kts 71°
2026-05-05 18:50 36.72606 -112.99744 38981 ft 524 kts 71°
2026-05-05 18:50 36.75061 -112.91183 38984 ft 525 kts 71°
2026-05-05 18:51 36.77495 -112.82669 38984 ft 524 kts 71°
2026-05-05 18:51 36.79931 -112.74119 38980 ft 526 kts 71°
2026-05-05 18:52 36.82371 -112.65530 38977 ft 526 kts 71°
2026-05-05 18:52 36.84808 -112.56927 38973 ft 525 kts 71°
2026-05-05 18:53 36.87235 -112.48328 38982 ft 527 kts 71°
2026-05-05 18:53 36.89652 -112.39729 38987 ft 527 kts 71°
2026-05-05 18:54 36.92086 -112.31033 38978 ft 528 kts 72°
2026-05-05 18:54 36.94507 -112.22385 38979 ft 529 kts 72°
2026-05-05 18:55 36.96919 -112.13740 38984 ft 531 kts 72°
2026-05-05 18:55 36.99347 -112.05011 38990 ft 530 kts 72°
2026-05-05 18:56 37.01762 -111.96299 38993 ft 531 kts 72°
2026-05-05 18:56 37.04163 -111.87611 38992 ft 531 kts 72°
2026-05-05 18:57 37.06560 -111.78906 38992 ft 532 kts 72°
2026-05-05 18:57 37.08953 -111.70190 38999 ft 532 kts 72°
2026-05-05 18:58 37.11347 -111.61439 38981 ft 534 kts 72°
2026-05-05 18:58 37.13746 -111.52641 38977 ft 534 kts 72°
2026-05-05 18:59 37.16140 -111.43829 38965 ft 536 kts 72°
2026-05-05 18:59 37.18518 -111.35055 38966 ft 534 kts 73°
2026-05-05 19:00 37.20901 -111.26224 38954 ft 534 kts 73°
2026-05-05 19:00 37.23792 -111.17643 38958 ft 540 kts 65°
2026-05-05 19:01 37.27148 -111.09251 38953 ft 538 kts 64°
2026-05-05 19:01 37.30499 -111.00854 38960 ft 539 kts 64°
2026-05-05 19:02 37.33828 -110.92474 38962 ft 538 kts 64°
2026-05-05 19:02 37.37157 -110.84064 38959 ft 538 kts 64°
2026-05-05 19:03 37.40464 -110.75683 38960 ft 538 kts 64°
2026-05-05 19:03 37.43789 -110.67232 38960 ft 544 kts 65°
2026-05-05 19:04 37.47124 -110.58733 38960 ft 539 kts 65°
2026-05-05 19:04 37.50423 -110.50301 38955 ft 544 kts 65°
2026-05-05 19:05 37.53740 -110.41798 38972 ft 541 kts 64°
2026-05-05 19:05 37.57059 -110.33268 38958 ft 543 kts 65°
2026-05-05 19:06 37.60355 -110.24776 38951 ft 541 kts 65°
2026-05-05 19:06 37.63650 -110.16260 38955 ft 544 kts 66°
2026-05-05 19:07 37.66946 -110.07717 38961 ft 543 kts 66°
2026-05-05 19:07 37.70245 -109.99143 38964 ft 544 kts 66°
2026-05-05 19:08 37.73542 -109.90552 38974 ft 544 kts 65°
2026-05-05 19:08 37.76877 -109.81838 38979 ft 544 kts 66°
2026-05-05 19:09 37.80159 -109.73238 38981 ft 544 kts 66°
2026-05-05 19:09 37.83636 -109.64100 38982 ft 548 kts 66°
2026-05-05 19:10 37.87331 -109.54359 38981 ft 547 kts 65°
2026-05-05 19:10 37.90612 -109.45683 38985 ft 547 kts 65°
2026-05-05 19:11 37.93873 -109.37037 38994 ft 549 kts 65°
2026-05-05 19:11 37.97139 -109.28353 38992 ft 548 kts 66°
2026-05-05 19:12 38.00427 -109.19582 39000 ft 551 kts 66°
2026-05-05 19:12 38.03669 -109.10914 39004 ft 547 kts 66°
2026-05-05 19:13 38.06930 -109.02168 39009 ft 551 kts 66°
2026-05-05 19:13 38.10186 -108.93410 39011 ft 551 kts 66°
2026-05-05 19:14 38.13574 -108.84742 39006 ft 550 kts 65°
2026-05-05 19:14 38.17012 -108.76033 39005 ft 552 kts 65°
2026-05-05 19:15 38.20416 -108.67370 39007 ft 551 kts 64°
2026-05-05 19:15 38.23838 -108.58626 39009 ft 553 kts 65°
2026-05-05 19:16 38.27242 -108.49897 39027 ft 552 kts 64°
2026-05-05 19:16 38.30637 -108.41162 39042 ft 555 kts 65°
2026-05-05 19:17 38.34280 -108.31760 39036 ft 550 kts 65°
2026-05-05 19:17 38.38008 -108.22107 39045 ft 555 kts 65°
2026-05-05 19:18 38.41389 -108.13326 39050 ft 554 kts 66°
2026-05-05 19:18 38.44767 -108.04527 39024 ft 553 kts 65°
2026-05-05 19:19 38.48126 -107.95712 38979 ft 556 kts 65°
2026-05-05 19:19 38.51465 -107.86870 38956 ft 554 kts 65°
2026-05-05 19:20 38.54792 -107.78033 38995 ft 556 kts 65°
2026-05-05 19:20 38.58138 -107.69125 39054 ft 557 kts 65°
2026-05-05 19:21 38.61458 -107.60262 39095 ft 557 kts 65°
2026-05-05 19:21 38.63527 -107.54723 39112 ft 559 kts 65°
2026-05-05 19:28 38.64198 -107.52924 39109 ft 559 kts 65°
2026-05-05 19:29 38.67564 -107.43959 39113 ft 560 kts 65°
2026-05-05 19:29 38.71084 -107.34674 38974 ft 552 kts 65°
2026-05-05 19:30 38.72919 -107.29821 38081 ft 556 kts 65°
2026-05-05 19:30 38.74618 -107.25319 37173 ft 560 kts 65°
2026-05-05 19:30 38.76368 -107.20672 36330 ft 562 kts 65°
2026-05-05 19:30 38.78122 -107.16008 35472 ft 564 kts 65°
2026-05-05 19:31 38.79819 -107.11487 34647 ft 565 kts 65°
2026-05-05 19:31 38.81518 -107.06956 33763 ft 567 kts 65°
2026-05-05 19:31 38.83215 -107.02422 32946 ft 568 kts 65°
2026-05-05 19:31 38.84902 -106.97907 32065 ft 569 kts 65°
2026-05-05 19:32 38.86610 -106.93328 31116 ft 568 kts 65°
2026-05-05 19:32 38.88317 -106.88747 30292 ft 556 kts 64°
2026-05-05 19:32 38.90083 -106.83999 29739 ft 538 kts 64°
2026-05-05 19:32 38.91728 -106.79569 29163 ft 516 kts 64°
2026-05-05 19:33 38.93387 -106.75095 28567 ft 496 kts 64°
2026-05-05 19:33 38.94856 -106.71127 28102 ft 486 kts 64°
2026-05-05 19:33 38.96284 -106.67268 27482 ft 484 kts 64°
2026-05-05 19:33 38.97708 -106.63411 27096 ft 469 kts 64°
2026-05-05 19:34 38.99091 -106.59660 27049 ft 456 kts 64°
2026-05-05 19:34 39.00435 -106.56010 26985 ft 452 kts 64°
2026-05-05 19:34 39.01782 -106.52335 26560 ft 456 kts 64°
2026-05-05 19:35 39.04772 -106.44158 25680 ft 442 kts 64°
2026-05-05 19:35 39.06073 -106.40593 25346 ft 436 kts 64°
2026-05-05 19:35 39.07341 -106.37117 25017 ft 437 kts 64°
2026-05-05 19:35 39.08631 -106.33575 24668 ft 436 kts 65°
2026-05-05 19:36 39.09912 -106.30053 24315 ft 434 kts 64°
2026-05-05 19:36 39.11184 -106.26551 23972 ft 432 kts 64°
2026-05-05 19:36 39.12457 -106.23042 23652 ft 429 kts 64°
2026-05-05 19:36 39.13710 -106.19586 23326 ft 426 kts 64°
2026-05-05 19:37 39.14961 -106.16131 22994 ft 423 kts 64°
2026-05-05 19:37 39.16190 -106.12726 22693 ft 421 kts 64°
2026-05-05 19:37 39.17414 -106.09322 22415 ft 419 kts 64°
2026-05-05 19:37 39.18629 -106.05941 22142 ft 418 kts 64°
2026-05-05 19:38 39.19850 -106.02538 21865 ft 415 kts 64°
2026-05-05 19:38 39.21035 -105.99236 21593 ft 412 kts 64°
2026-05-05 19:38 39.22234 -105.95890 21307 ft 409 kts 64°
2026-05-05 19:38 39.23426 -105.92556 21023 ft 410 kts 64°
2026-05-05 19:39 39.24618 -105.89236 20744 ft 408 kts 64°
2026-05-05 19:39 39.25808 -105.85938 20465 ft 407 kts 64°
2026-05-05 19:39 39.26996 -105.82640 20199 ft 404 kts 64°
2026-05-05 19:39 39.28177 -105.79363 19940 ft 403 kts 64°
2026-05-05 19:40 39.29353 -105.76090 19682 ft 402 kts 64°
2026-05-05 19:40 39.30531 -105.72810 19419 ft 403 kts 64°
2026-05-05 19:40 39.31697 -105.69559 19140 ft 399 kts 64°
2026-05-05 19:40 39.32852 -105.66338 18874 ft 390 kts 63°
2026-05-05 19:41 39.34158 -105.62761 18598 ft 384 kts 63°
2026-05-05 19:41 39.35489 -105.59126 18307 ft 385 kts 63°
2026-05-05 19:41 39.36758 -105.55649 18028 ft 383 kts 63°
2026-05-05 19:41 39.38056 -105.52088 17743 ft 380 kts 63°
2026-05-05 19:42 39.39309 -105.48642 17463 ft 375 kts 63°
2026-05-05 19:42 39.40529 -105.45284 17191 ft 366 kts 64°
2026-05-05 19:42 39.41377 -105.42010 16927 ft 358 kts 80°
2026-05-05 19:42 39.41604 -105.38620 16649 ft 351 kts 88°
2026-05-05 19:43 39.41682 -105.35066 16370 ft 349 kts 89°
2026-05-05 19:43 39.41725 -105.31516 16070 ft 348 kts 90°
2026-05-05 19:43 39.41752 -105.28127 15763 ft 346 kts 91°
2026-05-05 19:43 39.41774 -105.24828 15461 ft 345 kts 91°
2026-05-05 19:44 39.41792 -105.21665 15236 ft 343 kts 91°
2026-05-05 19:44 39.41808 -105.18589 14988 ft 342 kts 91°
2026-05-05 19:44 39.41823 -105.15232 14687 ft 340 kts 91°
2026-05-05 19:44 39.41836 -105.12200 14443 ft 335 kts 91°
2026-05-05 19:45 39.41850 -105.08812 14166 ft 329 kts 91°
2026-05-05 19:45 39.41861 -105.05856 13909 ft 324 kts 91°
2026-05-05 19:45 39.41871 -105.02969 13680 ft 317 kts 91°
2026-05-05 19:45 39.41880 -105.00024 13429 ft 308 kts 91°
2026-05-05 19:46 39.41888 -104.97248 13154 ft 303 kts 91°
2026-05-05 19:46 39.41914 -104.94537 12937 ft 295 kts 88°
2026-05-05 19:46 39.42128 -104.91621 12679 ft 290 kts 85°
2026-05-05 19:46 39.42378 -104.88864 12360 ft 287 kts 84°